Hourly Data Report for January 16, 2017

PORT ALBERNI (AUT)
BRITISH COLUMBIA

49°18'59.700" N
124°55'36.600" W
76.20 m
1036B06
71475
WQC

Download Data

Hourly Data (January 2017)
Hourly Data Report for January 16, 2017
TIME
LST
Temp Definition
°C
Dew Point Definition
°C
Rel Hum Definition
%
Precip. Amount Definition
mm

Wind Dir Definition
10's deg

Wind Spd Definition
km/h
Visibility Definition
km
Stn Press Definition
kPa
Hmdx Definition


Wind Chill Definition


Weather Definition


00:00 -0.3 LegendMM LegendMM 0.0 4 4   101.57   -2 LegendNANA
01:00 -0.4 LegendMM LegendMM 0.0 34 4   101.55   -2 LegendNANA
02:00 -0.2 LegendMM LegendMM 0.0 31 3   101.54   -1 LegendNANA
03:00 -0.2 LegendMM LegendMM 0.0 13 2   101.46   -1 LegendNANA
04:00 0.0 LegendMM LegendMM 0.0 35 2   101.45   -1 LegendNANA
05:00 -0.1 LegendMM LegendMM 0.0   0   101.34     LegendNANA
06:00 0.0 LegendMM LegendMM 0.0 21 4   101.34   -1 LegendNANA
07:00 0.0 LegendMM LegendMM 0.0 35 1   101.20   0 LegendNANA
08:00 0.1 LegendMM LegendMM 0.3 28 3   101.15     LegendNANA
09:00 0.3 LegendMM LegendMM 0.1 16 2   101.15     LegendNANA
10:00 0.6 LegendMM LegendMM 0.0 10 4   101.10     LegendNANA
11:00 0.7 LegendMM LegendMM 0.1 35 2   101.04     LegendNANA
12:00 1.3 LegendMM LegendMM 0.0 27 6   100.93     LegendNANA
13:00 1.6 LegendMM LegendMM 0.0 5 2   100.78     LegendNANA
14:00 1.6 LegendMM LegendMM 0.1 20 3   100.64     LegendNANA
15:00 1.5 LegendMM LegendMM 1.2 0 1   100.57     LegendNANA
16:00 1.4 LegendMM LegendMM 2.0   0   100.56     LegendNANA
17:00 1.3 LegendMM LegendMM 3.3 12 1   100.53     LegendNANA
18:00 1.3 LegendMM LegendMM 2.9 22 5   100.37     LegendNANA
19:00 1.1 LegendMM LegendMM 1.6 25 4   100.30     LegendNANA
20:00 1.2 LegendMM LegendMM 1.1 5 2   100.23     LegendNANA
21:00 1.1 LegendMM LegendMM 0.8 24 2   100.18     LegendNANA
22:00 1.0 LegendMM LegendMM 1.3 5 3   100.12     LegendNANA
23:00 0.9 LegendMM LegendMM 0.5 34 2   100.08     LegendNANA

Notes on Data Quality.

Legend

  • E = Estimated
  • M = Missing
  • NA = Not Available*
  • [empty] = Indicates an unobserved value
Date modified: